Regional Weather Roundup
Issued by NWS

Home | Current Version | Previous Version | Graphics & Text | Print | Product List | Glossary On
Versions: 1 2 3 4 5 6 7 8 9 10 11 12 13 14 15 16 17 18 19 20 21 22 23 24 25 26 27 28 29 30 31 32 33 34 35 36 37 38 39 40 41 42 43 44 45 46 47 48 49 50
000
ASUS43 KLMK 281310
RWRKY
KENTUCKY REGIONAL WEATHER ROUNDUP
NATIONAL WEATHER SERVICE LOUISVILLE KY
800 AM EST WED JAN 28 2015

NOTE "FAIR" INDICATES FEW OR NO CLOUDS BELOW 12,000 FEET
WITH NO SIGNIFICANT WEATHER AND/OR OBSTRUCTIONS TO VISIBILITY.

KYZ001>023-026-027-061>063-070>075-281400-
WESTERN AND SOUTH CENTRAL KENTUCKY

CITY           SKY/WX    TMP DP  RH WIND       PRES   REMARKS
PADUCAH        CLEAR     27  24  89 SE3       30.30R FOG
HENDERSON      PTCLDY    27  21  80 CALM      30.33R
OWENSBORO      CLEAR     27  19  71 SE7       30.34R WCI  20
HOPKINSVILLE   CLOUDY    31  26  80 E10       30.31F WCI  23
BOWLING GREEN  FAIR      24  15  68 E5        30.35R WCI  18
GLASGOW        CLEAR     21  16  81 NE5       30.34R WCI  15
$$

KYZ024-025-028>034-038-045-046-053-281400-
NORTH CENTRAL KENTUCKY

CITY           SKY/WX    TMP DP  RH WIND       PRES   REMARKS
LOUISVILLE/SDF PTCLDY    20  13  74 E5        30.38R HAZE    WCI  13
LOUISVILLE/LOU PTCLDY    20  13  74 CALM      30.38R
FORT KNOX      PTCLDY    18  13  80 E5        30.34S WCI  11
$$

KYZ035>037-039>044-047>052-055>060-089>105-281400-
NORTHEAST KENTUCKY

CITY           SKY/WX    TMP DP  RH WIND       PRES   REMARKS
LEXINGTON      CLEAR     17  12  80 E5        30.34R WCI  10
COVINGTON      PTCLDY    16  12  84 CALM      30.35R FOG
FRANKFORT      PTCLDY    15  10  80 CALM      30.35R HAZE
$$

KYZ054-064>069-076>088-106>120-281400-
SOUTHEAST KENTUCKY

CITY           SKY/WX    TMP DP  RH WIND       PRES   REMARKS
JACKSON        CLEAR     15  10  80 NE3       30.32R
LONDON         CLEAR     18  10  71 E3        30.32R
SOMERSET       CLEAR     18  14  86 CALM      30.36R
MIDDLESBORO    CLEAR     17  15  95 CALM      30.34R
MONTICELLO     SUNNY     16  14  91 CALM      30.36R
$$



USA.gov is the U.S. government's official web portal to all federal, state and local government web resources and services.